Location: Hyderabad
(17.3833°N, 78.4667°E)
Time: 13:38:19
(UTC+05:30)

H-2A R/B - Pass Details

Date: 16 December 2017
Orbit: 249 x 33046 km, 28.4° (Epoch: 20 January)

Event Time Altitude Azimuth Distance (km) Brightness Sun altitude
Rises 18:32:28 0° 220° (SW) 3,590 6.6 -11.4°
Reaches altitude 10° 18:33:58 10° 215° (SW) 3,126 6.0 -11.7°
Maximum altitude 18:41:50 58° 135° (SE) 3,243 5.0 -13.4°
Enters shadow 19:24:27 25° 69° (ENE) 15,800 8.0 -23.0°
Exits shadow 20:45:41 20° 68° (ENE) 29,013 9.4 -41.5°
Drops below altitude 10° 03:19:39 10° 110° (ESE) 13,716 8.9 -45.8°
Sets 03:27:41 0° 112° (ESE) 12,687 9.0 -44.0°
